DLH02M EDDF-LGTS

Flight info

Callsign DLH02M
Flight time 2h 11m
Altitude 37000
Route CINDY6F CINDY Z74 LAMPU DCT NOMBO Y161 MAH DCT LATLO DCT OBEDI DCT PODET DCT RAMAP DCT RAXAD/N0381F190 L617 MAKED P36 ALIKO
Aircraft A320/M-SDE3FGHIRWY/LB1

Departure

Time 2026-05-07 06:07
Airport Frankfurt Main Airport (EDDF)

Arrival

Time 2026-05-07 08:18
Airport Thessaloniki Macedonia International Airport (LGTS)
Time Latitude Longitude Altitude Speed Heading
2026-05-07 05:34 50.03642 8.52311 341 ft 0 kts 338°
2026-05-07 05:58 50.03625 8.52323 335 ft 3 kts 332°
2026-05-07 05:59 50.03605 8.52336 336 ft 1 kts 345°
2026-05-07 05:59 50.03585 8.52349 337 ft 3 kts 315°
2026-05-07 05:59 50.03575 8.52374 335 ft 3 kts 278°
2026-05-07 05:59 50.03574 8.52397 336 ft 3 kts 262°
2026-05-07 06:00 50.03580 8.52431 337 ft 2 kts 249°
2026-05-07 06:00 50.03587 8.52464 336 ft 3 kts 254°
2026-05-07 06:00 50.03593 8.52500 336 ft 3 kts 262°
2026-05-07 06:00 50.03595 8.52537 336 ft 2 kts 272°
2026-05-07 06:01 50.03595 8.52540 337 ft 0 kts 272°
2026-05-07 06:03 50.03595 8.52527 336 ft 4 kts 272°
2026-05-07 06:03 50.03584 8.52459 336 ft 10 kts 237°
2026-05-07 06:03 50.03540 8.52436 337 ft 7 kts 166°
2026-05-07 06:03 50.03494 8.52421 336 ft 7 kts 223°
2026-05-07 06:04 50.03473 8.52354 334 ft 7 kts 249°
2026-05-07 06:04 50.03430 8.52303 332 ft 10 kts 187°
2026-05-07 06:04 50.03355 8.52301 333 ft 11 kts 180°
2026-05-07 06:04 50.03288 8.52312 330 ft 9 kts 154°
2026-05-07 06:05 50.03266 8.52381 333 ft 6 kts 95°
2026-05-07 06:05 50.03265 8.52451 334 ft 8 kts 89°
2026-05-07 06:05 50.03266 8.52539 335 ft 7 kts 89°
2026-05-07 06:05 50.03250 8.52592 331 ft 5 kts 161°
2026-05-07 06:06 50.03215 8.52595 335 ft 6 kts 179°
2026-05-07 06:06 50.03013 8.52596 332 ft 65 kts 180°
2026-05-07 06:06 50.02331 8.52603 335 ft 128 kts 179°
2026-05-07 06:06 50.01269 8.52620 379 ft 172 kts 182°
2026-05-07 06:07 50.00483 8.52640 807 ft 170 kts 182°
2026-05-07 06:07 49.98909 8.52648 1781 ft 174 kts 182°
2026-05-07 06:07 49.97625 8.52736 2157 ft 197 kts 169°
2026-05-07 06:07 49.96348 8.53772 2479 ft 222 kts 135°
2026-05-07 06:08 49.95476 8.55838 2930 ft 238 kts 118°
2026-05-07 06:08 49.94944 8.57338 3486 ft 240 kts 118°
2026-05-07 06:08 49.94224 8.59671 4344 ft 241 kts 105°
2026-05-07 06:08 49.93969 8.62287 4968 ft 256 kts 92°
2026-05-07 06:09 49.93857 8.65139 5587 ft 271 kts 92°
2026-05-07 06:09 49.93448 8.68047 6454 ft 281 kts 110°
2026-05-07 06:09 49.92443 8.70675 7286 ft 288 kts 130°
2026-05-07 06:09 49.90922 8.72719 8121 ft 292 kts 146°
2026-05-07 06:10 49.89272 8.74622 8950 ft 298 kts 139°
2026-05-07 06:10 49.87888 8.77051 9782 ft 305 kts 124°
2026-05-07 06:10 49.86807 8.79947 10333 ft 320 kts 119°
2026-05-07 06:10 49.85688 8.83074 10600 ft 344 kts 119°
2026-05-07 06:11 49.84495 8.86398 11025 ft 359 kts 119°
2026-05-07 06:11 49.83268 8.89798 11754 ft 363 kts 119°
2026-05-07 06:11 49.82027 8.93223 12557 ft 366 kts 118°
2026-05-07 06:11 49.80790 8.96627 13347 ft 368 kts 118°
2026-05-07 06:12 49.79526 9.00086 14101 ft 370 kts 118°
2026-05-07 06:12 49.78250 9.03572 14789 ft 373 kts 118°
2026-05-07 06:12 49.76972 9.07086 15458 ft 377 kts 117°
2026-05-07 06:12 49.75953 9.10837 16058 ft 380 kts 106°
2026-05-07 06:13 49.75274 9.14803 16709 ft 383 kts 106°
2026-05-07 06:13 49.74268 9.18636 17357 ft 388 kts 117°
2026-05-07 06:13 49.72789 9.22154 17990 ft 392 kts 128°
2026-05-07 06:13 49.70988 9.25349 18547 ft 396 kts 130°
2026-05-07 06:14 49.69161 9.28544 19082 ft 399 kts 130°
2026-05-07 06:14 49.67323 9.31764 19647 ft 401 kts 130°
2026-05-07 06:14 49.65475 9.35004 20153 ft 404 kts 130°
2026-05-07 06:14 49.63614 9.38274 20718 ft 406 kts 131°
2026-05-07 06:15 49.61585 9.41327 21198 ft 410 kts 140°
2026-05-07 06:15 49.59233 9.43859 21666 ft 414 kts 149°
2026-05-07 06:15 49.56741 9.46131 22172 ft 417 kts 149°
2026-05-07 06:15 49.54238 9.48409 22699 ft 419 kts 149°
2026-05-07 06:16 49.51719 9.50700 23201 ft 422 kts 149°
2026-05-07 06:16 49.49186 9.53006 23646 ft 425 kts 149°
2026-05-07 06:16 49.46632 9.55330 24048 ft 427 kts 149°
2026-05-07 06:16 49.44067 9.57666 24446 ft 430 kts 148°
2026-05-07 06:17 49.41485 9.60014 24832 ft 432 kts 148°
2026-05-07 06:17 49.38925 9.62339 25212 ft 434 kts 148°
2026-05-07 06:17 49.36317 9.64713 25591 ft 437 kts 148°
2026-05-07 06:17 49.33813 9.67358 25956 ft 438 kts 140°
2026-05-07 06:18 49.31573 9.70536 26295 ft 440 kts 134°
2026-05-07 06:18 49.29404 9.73862 26650 ft 443 kts 134°
2026-05-07 06:18 49.27210 9.77214 27017 ft 445 kts 134°
2026-05-07 06:18 49.25010 9.80562 27390 ft 448 kts 134°
2026-05-07 06:19 49.22793 9.83931 27724 ft 450 kts 135°
2026-05-07 06:19 49.20564 9.87315 28101 ft 452 kts 135°
2026-05-07 06:19 49.18331 9.90709 28446 ft 454 kts 135°
2026-05-07 06:19 49.16081 9.94122 28757 ft 456 kts 135°
2026-05-07 06:20 49.13816 9.97551 29085 ft 458 kts 135°
2026-05-07 06:20 49.11547 10.00986 29386 ft 461 kts 134°
2026-05-07 06:20 49.09294 10.04390 29678 ft 463 kts 135°
2026-05-07 06:20 49.07000 10.07846 29965 ft 465 kts 135°
2026-05-07 06:21 49.04683 10.11294 30286 ft 465 kts 136°
2026-05-07 06:21 49.02330 10.14685 30617 ft 465 kts 137°
2026-05-07 06:21 48.99957 10.18022 31017 ft 462 kts 139°
2026-05-07 06:21 48.97597 10.21300 31514 ft 457 kts 139°
2026-05-07 06:22 48.95255 10.24548 32015 ft 454 kts 139°
2026-05-07 06:22 48.90613 10.31040 32849 ft 452 kts 139°
2026-05-07 06:22 48.88311 10.34280 33233 ft 451 kts 139°
2026-05-07 06:23 48.86016 10.37516 33611 ft 450 kts 139°
2026-05-07 06:23 48.83725 10.40743 33985 ft 449 kts 139°
2026-05-07 06:23 48.81464 10.44017 34265 ft 449 kts 138°
2026-05-07 06:23 48.79272 10.47410 34530 ft 450 kts 136°
2026-05-07 06:24 48.77130 10.50879 34781 ft 451 kts 135°
2026-05-07 06:24 48.75036 10.54336 35026 ft 450 kts 135°
2026-05-07 06:24 48.72916 10.57839 35317 ft 450 kts 136°
2026-05-07 06:24 48.70795 10.61310 35578 ft 449 kts 136°
2026-05-07 06:25 48.68656 10.64763 35817 ft 449 kts 136°
2026-05-07 06:25 48.66502 10.68193 36045 ft 449 kts 137°
2026-05-07 06:25 48.64338 10.71609 36279 ft 449 kts 137°
2026-05-07 06:25 48.62173 10.75014 36498 ft 449 kts 137°
2026-05-07 06:26 48.60007 10.78421 36716 ft 449 kts 137°
2026-05-07 06:26 48.57871 10.81793 36907 ft 450 kts 137°
2026-05-07 06:26 48.53560 10.88683 36947 ft 452 kts 137°
2026-05-07 06:27 48.49272 10.95579 36974 ft 450 kts 137°
2026-05-07 06:27 48.44956 11.02392 36974 ft 449 kts 138°
2026-05-07 06:28 48.40603 11.09133 36975 ft 449 kts 138°
2026-05-07 06:28 48.36250 11.15857 36971 ft 449 kts 138°
2026-05-07 06:29 48.31899 11.22587 36958 ft 449 kts 138°
2026-05-07 06:29 48.27561 11.29338 36965 ft 450 kts 135°
2026-05-07 06:30 48.24926 11.34944 36970 ft 457 kts 123°
2026-05-07 06:30 48.21810 11.43241 36977 ft 456 kts 124°
2026-05-07 06:31 48.18664 11.51509 36995 ft 456 kts 124°
2026-05-07 06:31 48.15511 11.59768 36963 ft 457 kts 124°
2026-05-07 06:32 48.12368 11.68018 36968 ft 456 kts 124°
2026-05-07 06:32 48.09241 11.76191 36979 ft 455 kts 124°
2026-05-07 06:33 48.06067 11.84447 36977 ft 455 kts 124°
2026-05-07 06:33 48.02932 11.92580 36971 ft 454 kts 125°
2026-05-07 06:34 47.99777 12.00760 36958 ft 454 kts 125°
2026-05-07 06:34 47.96610 12.08930 36962 ft 455 kts 125°
2026-05-07 06:35 47.93433 12.17099 36971 ft 455 kts 125°
2026-05-07 06:35 47.90250 12.25263 36977 ft 455 kts 125°
2026-05-07 06:36 47.87063 12.33416 36986 ft 455 kts 125°
2026-05-07 06:36 47.83865 12.41568 36987 ft 455 kts 125°
2026-05-07 06:37 47.80690 12.49636 36988 ft 455 kts 125°
2026-05-07 06:37 47.77483 12.57759 36993 ft 455 kts 125°
2026-05-07 06:38 47.74272 12.65860 37000 ft 455 kts 126°
2026-05-07 06:38 47.71047 12.73957 36968 ft 456 kts 126°
2026-05-07 06:39 47.67580 12.81754 36978 ft 448 kts 137°
2026-05-07 06:39 47.63246 12.88311 36983 ft 445 kts 140°
2026-05-07 06:40 47.58853 12.94787 36990 ft 445 kts 140°
2026-05-07 06:40 47.54456 13.01254 36990 ft 445 kts 140°
2026-05-07 06:41 47.50089 13.07674 36971 ft 445 kts 141°
2026-05-07 06:41 47.45691 13.14132 36986 ft 444 kts 141°
2026-05-07 06:42 47.41301 13.20557 36992 ft 444 kts 141°
2026-05-07 06:42 47.36906 13.26970 36996 ft 444 kts 141°
2026-05-07 06:43 47.32577 13.33488 36995 ft 448 kts 134°
2026-05-07 06:43 47.28905 13.40978 36964 ft 451 kts 131°
2026-05-07 06:44 47.25266 13.48512 36973 ft 451 kts 131°
2026-05-07 06:44 47.21616 13.56028 36976 ft 452 kts 131°
2026-05-07 06:45 47.17954 13.63540 36981 ft 452 kts 131°
2026-05-07 06:45 47.14290 13.71032 36981 ft 451 kts 132°
2026-05-07 06:46 47.10623 13.78492 36969 ft 451 kts 132°
2026-05-07 06:46 47.06982 13.85903 36971 ft 450 kts 132°
2026-05-07 06:47 47.03319 13.93352 36960 ft 450 kts 132°
2026-05-07 06:47 46.99643 14.00772 36962 ft 450 kts 132°
2026-05-07 06:48 46.95955 14.08215 36957 ft 451 kts 132°
2026-05-07 06:48 46.92276 14.15640 36976 ft 450 kts 133°
2026-05-07 06:49 46.88586 14.23042 36973 ft 450 kts 133°
2026-05-07 06:49 46.84917 14.30386 36985 ft 450 kts 133°
2026-05-07 06:50 46.81216 14.37773 36985 ft 450 kts 133°
2026-05-07 06:50 46.77508 14.45149 36971 ft 450 kts 133°
2026-05-07 06:51 46.73803 14.52504 36976 ft 450 kts 133°
2026-05-07 06:51 46.70087 14.59869 36988 ft 450 kts 133°
2026-05-07 06:52 46.66395 14.67158 36990 ft 450 kts 133°
2026-05-07 06:52 46.62679 14.74489 36951 ft 450 kts 133°
2026-05-07 06:53 46.58960 14.81813 36967 ft 450 kts 133°
2026-05-07 06:53 46.55230 14.89105 36973 ft 449 kts 133°
2026-05-07 06:54 46.51493 14.96389 36985 ft 449 kts 133°
2026-05-07 06:54 46.47759 15.03669 36980 ft 450 kts 133°
2026-05-07 06:55 46.44031 15.10941 36966 ft 449 kts 134°
2026-05-07 06:55 46.40289 15.18203 36962 ft 450 kts 134°
2026-05-07 06:56 46.36558 15.25412 36967 ft 450 kts 134°
2026-05-07 06:56 46.32801 15.32664 36958 ft 450 kts 134°
2026-05-07 06:57 46.29035 15.39910 36934 ft 451 kts 134°
2026-05-07 06:57 46.25256 15.47157 36946 ft 452 kts 134°
2026-05-07 06:58 46.21464 15.54408 36965 ft 453 kts 134°
2026-05-07 06:58 46.18305 15.60443 36969 ft 453 kts 134°
2026-05-07 06:59 46.14558 15.67780 36981 ft 456 kts 131°
2026-05-07 06:59 46.10987 15.75350 36987 ft 457 kts 130°
2026-05-07 07:00 46.07446 15.82950 36989 ft 457 kts 130°
2026-05-07 07:00 46.03858 15.90495 36982 ft 457 kts 131°
2026-05-07 07:01 46.00232 15.98002 36988 ft 457 kts 131°
2026-05-07 07:01 45.96598 16.05497 36972 ft 457 kts 131°
2026-05-07 07:02 45.92964 16.12989 36989 ft 457 kts 131°
2026-05-07 07:02 45.89335 16.20475 36999 ft 457 kts 131°
2026-05-07 07:03 45.85702 16.27957 37001 ft 457 kts 131°
2026-05-07 07:03 45.82081 16.35369 36974 ft 457 kts 131°
2026-05-07 07:04 45.78435 16.42816 36984 ft 456 kts 131°
2026-05-07 07:04 45.74788 16.50247 36987 ft 456 kts 131°
2026-05-07 07:05 45.71133 16.57684 36997 ft 456 kts 131°
2026-05-07 07:05 45.67478 16.65097 36995 ft 456 kts 131°
2026-05-07 07:06 45.63817 16.72494 36995 ft 456 kts 131°
2026-05-07 07:06 45.60149 16.79886 36998 ft 455 kts 131°
2026-05-07 07:07 45.56518 16.87201 37001 ft 455 kts 131°
2026-05-07 07:07 45.52856 16.94568 37005 ft 455 kts 131°
2026-05-07 07:08 45.49186 17.01907 36983 ft 454 kts 131°
2026-05-07 07:08 45.45508 17.09253 36986 ft 455 kts 131°
2026-05-07 07:09 45.41826 17.16573 36990 ft 455 kts 131°
2026-05-07 07:09 45.38137 17.23900 36994 ft 455 kts 131°
2026-05-07 07:10 45.34446 17.31215 36973 ft 455 kts 131°
2026-05-07 07:10 45.30753 17.38518 36993 ft 455 kts 131°
2026-05-07 07:11 45.27052 17.45819 36997 ft 455 kts 131°
2026-05-07 07:11 45.23344 17.53098 37000 ft 455 kts 131°
2026-05-07 07:12 45.19653 17.60331 36985 ft 455 kts 131°
2026-05-07 07:12 45.15943 17.67586 36997 ft 454 kts 131°
2026-05-07 07:13 45.12239 17.74828 37007 ft 454 kts 131°
2026-05-07 07:13 45.08527 17.82059 37011 ft 453 kts 131°
2026-05-07 07:14 45.04814 17.89265 37001 ft 453 kts 131°
2026-05-07 07:14 45.01098 17.96451 37022 ft 453 kts 131°
2026-05-07 07:15 44.97375 18.03641 37016 ft 453 kts 131°
2026-05-07 07:15 44.93673 18.10774 37018 ft 453 kts 131°
2026-05-07 07:16 44.89942 18.17948 37019 ft 453 kts 131°
2026-05-07 07:16 44.86208 18.25103 36998 ft 453 kts 131°
2026-05-07 07:17 44.82469 18.32252 37006 ft 453 kts 131°
2026-05-07 07:17 44.78726 18.39398 37015 ft 453 kts 131°
2026-05-07 07:18 44.74978 18.46534 37014 ft 453 kts 131°
2026-05-07 07:18 44.71221 18.53668 37012 ft 454 kts 131°
2026-05-07 07:19 44.67479 18.60745 37029 ft 454 kts 131°
2026-05-07 07:19 44.63710 18.67863 37039 ft 454 kts 131°
2026-05-07 07:20 44.59941 18.74977 37045 ft 454 kts 131°
2026-05-07 07:20 44.56162 18.82072 37025 ft 454 kts 131°
2026-05-07 07:21 44.52379 18.89151 37033 ft 454 kts 131°
2026-05-07 07:21 44.48605 18.96221 37039 ft 453 kts 131°
2026-05-07 07:22 44.44827 19.03290 37039 ft 453 kts 131°
2026-05-07 07:22 44.41032 19.10343 37032 ft 453 kts 132°
2026-05-07 07:23 44.37237 19.17370 37042 ft 453 kts 132°
2026-05-07 07:23 44.33463 19.24363 37045 ft 453 kts 132°
2026-05-07 07:24 44.29670 19.31390 37044 ft 453 kts 132°
2026-05-07 07:24 44.25868 19.38403 37038 ft 452 kts 132°
2026-05-07 07:25 44.20158 19.48878 37050 ft 452 kts 132°
2026-05-07 07:26 44.16380 19.55801 37063 ft 452 kts 132°
2026-05-07 07:26 44.12565 19.62777 37069 ft 451 kts 132°
2026-05-07 07:27 44.08756 19.69719 37062 ft 451 kts 132°
2026-05-07 07:27 44.04941 19.76654 37070 ft 451 kts 132°
2026-05-07 07:28 44.01125 19.83581 37061 ft 451 kts 132°
2026-05-07 07:28 43.97302 19.90497 37069 ft 451 kts 132°
2026-05-07 07:29 43.93501 19.97371 37067 ft 451 kts 132°
2026-05-07 07:29 43.89672 20.04272 37079 ft 451 kts 132°
2026-05-07 07:30 43.85827 20.11173 37082 ft 451 kts 132°
2026-05-07 07:30 43.81990 20.18058 37088 ft 452 kts 132°
2026-05-07 07:31 43.78150 20.24933 37080 ft 452 kts 132°
2026-05-07 07:31 43.74295 20.31807 37081 ft 452 kts 132°
2026-05-07 07:32 43.70437 20.38668 37077 ft 452 kts 132°
2026-05-07 07:32 43.66602 20.45492 37091 ft 452 kts 132°
2026-05-07 07:33 43.62744 20.52345 37081 ft 452 kts 132°
2026-05-07 07:33 43.58870 20.59191 37093 ft 453 kts 132°
2026-05-07 07:34 43.57223 20.62094 37094 ft 453 kts 132°
2026-05-07 07:34 43.53342 20.68933 37111 ft 453 kts 132°
2026-05-07 07:35 43.49453 20.75760 37096 ft 453 kts 132°
2026-05-07 07:35 43.45558 20.82585 37094 ft 453 kts 132°
2026-05-07 07:36 43.43908 20.85473 37103 ft 453 kts 132°
2026-05-07 07:36 43.40012 20.91394 37096 ft 448 kts 142°
2026-05-07 07:37 43.35412 20.97106 37096 ft 449 kts 142°
2026-05-07 07:37 43.30774 21.02868 37097 ft 449 kts 142°
2026-05-07 07:38 43.26136 21.08636 37099 ft 450 kts 142°
2026-05-07 07:38 43.21486 21.14407 37114 ft 451 kts 142°
2026-05-07 07:39 43.16832 21.20160 37104 ft 451 kts 142°
2026-05-07 07:39 43.12165 21.25902 37106 ft 451 kts 142°
2026-05-07 07:40 43.07492 21.31653 37113 ft 452 kts 142°
2026-05-07 07:40 43.02807 21.37411 37122 ft 453 kts 142°
2026-05-07 07:41 42.98142 21.43128 37120 ft 453 kts 142°
2026-05-07 07:41 42.93449 21.48869 37119 ft 453 kts 142°
2026-05-07 07:42 42.88746 21.54611 37110 ft 454 kts 142°
2026-05-07 07:42 42.84035 21.60346 37114 ft 454 kts 142°
2026-05-07 07:43 42.79323 21.66074 37112 ft 454 kts 142°
2026-05-07 07:43 42.74602 21.71792 37116 ft 454 kts 142°
2026-05-07 07:44 42.69876 21.77501 37128 ft 454 kts 142°
2026-05-07 07:44 42.65152 21.83203 37113 ft 454 kts 142°
2026-05-07 07:45 42.60425 21.88900 37125 ft 454 kts 142°
2026-05-07 07:45 42.55721 21.94565 37129 ft 455 kts 142°
2026-05-07 07:46 42.50977 22.00252 37130 ft 455 kts 142°
2026-05-07 07:46 42.46232 22.05930 37126 ft 455 kts 142°
2026-05-07 07:47 42.41487 22.11602 37126 ft 455 kts 142°
2026-05-07 07:47 42.36734 22.17261 37118 ft 455 kts 143°
2026-05-07 07:48 42.31782 22.22415 37116 ft 449 kts 155°
2026-05-07 07:48 42.26041 22.25406 37011 ft 440 kts 172°
2026-05-07 07:48 42.23024 22.26137 36737 ft 438 kts 174°
2026-05-07 07:49 42.20018 22.26834 36470 ft 438 kts 174°
2026-05-07 07:49 42.17012 22.27533 36214 ft 439 kts 174°
2026-05-07 07:49 42.15023 22.27997 36044 ft 439 kts 174°
2026-05-07 07:49 42.10995 22.28943 35703 ft 439 kts 174°
2026-05-07 07:50 42.08028 22.29644 35460 ft 439 kts 174°
2026-05-07 07:50 42.05021 22.30355 35210 ft 439 kts 174°
2026-05-07 07:50 42.02017 22.31063 34961 ft 438 kts 175°
2026-05-07 07:50 41.99013 22.31769 34708 ft 438 kts 175°
2026-05-07 07:51 41.96983 22.32244 34543 ft 439 kts 175°
2026-05-07 07:51 41.93002 22.33177 34225 ft 439 kts 175°
2026-05-07 07:51 41.91005 22.33644 34060 ft 439 kts 175°
2026-05-07 07:51 41.87998 22.34344 33783 ft 439 kts 175°
2026-05-07 07:52 41.84989 22.35043 33508 ft 440 kts 175°
2026-05-07 07:52 41.81967 22.35742 32667 ft 444 kts 175°
2026-05-07 07:52 41.78893 22.36452 31563 ft 450 kts 174°
2026-05-07 07:52 41.75795 22.37171 30599 ft 453 kts 174°
2026-05-07 07:53 41.72664 22.37898 29414 ft 459 kts 173°
2026-05-07 07:53 41.69542 22.38628 28868 ft 450 kts 173°
2026-05-07 07:53 41.66480 22.39348 28162 ft 444 kts 173°
2026-05-07 07:53 41.63452 22.40057 27471 ft 439 kts 173°
2026-05-07 07:54 41.60453 22.40754 26787 ft 435 kts 173°
2026-05-07 07:54 41.57486 22.41440 26123 ft 431 kts 173°
2026-05-07 07:54 41.54538 22.42119 25465 ft 428 kts 173°
2026-05-07 07:54 41.51618 22.42790 24820 ft 424 kts 172°
2026-05-07 07:55 41.48715 22.43460 24175 ft 422 kts 172°
2026-05-07 07:55 41.45872 22.44118 23523 ft 419 kts 172°
2026-05-07 07:55 41.43018 22.44777 22870 ft 414 kts 172°
2026-05-07 07:55 41.40196 22.45427 22312 ft 409 kts 172°
2026-05-07 07:56 41.37375 22.46075 21730 ft 404 kts 172°
2026-05-07 07:56 41.36098 22.46370 21504 ft 401 kts 173°
2026-05-07 07:56 41.33364 22.46986 20987 ft 396 kts 172°
2026-05-07 07:56 41.30665 22.47601 20482 ft 391 kts 172°
2026-05-07 07:57 41.29072 22.47966 20189 ft 389 kts 172°
2026-05-07 07:57 41.27070 22.48425 19819 ft 386 kts 172°
2026-05-07 07:57 41.24435 22.49032 19328 ft 383 kts 172°
2026-05-07 07:57 41.21821 22.49635 18844 ft 380 kts 173°
2026-05-07 07:58 41.19221 22.50232 18316 ft 378 kts 173°
2026-05-07 07:58 41.16638 22.50822 17775 ft 375 kts 173°
2026-05-07 07:58 41.14073 22.51348 17278 ft 370 kts 177°
2026-05-07 07:58 41.11518 22.51369 16772 ft 365 kts 187°
2026-05-07 07:59 41.09019 22.50921 16268 ft 362 kts 191°
2026-05-07 07:59 41.06536 22.50441 15756 ft 360 kts 190°
2026-05-07 07:59 41.04057 22.49976 15234 ft 359 kts 190°
2026-05-07 07:59 41.01587 22.49519 14709 ft 358 kts 190°
2026-05-07 08:00 40.99127 22.49065 14187 ft 357 kts 190°
2026-05-07 08:00 40.96705 22.48614 13634 ft 355 kts 190°
2026-05-07 08:00 40.94262 22.48155 13092 ft 353 kts 190°
2026-05-07 08:00 40.93083 22.47933 12837 ft 351 kts 190°
2026-05-07 08:01 40.90670 22.47478 12292 ft 349 kts 190°
2026-05-07 08:01 40.88275 22.47028 11749 ft 346 kts 190°
2026-05-07 08:01 40.86408 22.46677 11325 ft 344 kts 189°
2026-05-07 08:01 40.84054 22.46236 11011 ft 337 kts 189°
2026-05-07 08:02 40.81774 22.45811 10764 ft 326 kts 188°
2026-05-07 08:02 40.79536 22.45847 10517 ft 320 kts 172°
2026-05-07 08:02 40.77452 22.46767 10282 ft 315 kts 154°
2026-05-07 08:02 40.75748 22.48403 10120 ft 299 kts 136°
2026-05-07 08:03 40.74536 22.50484 10112 ft 275 kts 123°
2026-05-07 08:03 40.73616 22.52418 10067 ft 256 kts 124°
2026-05-07 08:09 40.72887 22.53951 9668 ft 253 kts 125°
2026-05-07 08:09 40.71929 22.55839 9423 ft 248 kts 133°
2026-05-07 08:10 40.70646 22.57281 9035 ft 240 kts 154°
2026-05-07 08:10 40.69108 22.58025 8559 ft 235 kts 173°
2026-05-07 08:10 40.67499 22.58043 8076 ft 230 kts 192°
2026-05-07 08:10 40.65995 22.57383 7586 ft 227 kts 207°
2026-05-07 08:11 40.64548 22.56537 7074 ft 228 kts 203°
2026-05-07 08:11 40.63069 22.55796 6610 ft 226 kts 197°
2026-05-07 08:11 40.61518 22.55676 6148 ft 226 kts 168°
2026-05-07 08:11 40.60113 22.56564 5707 ft 227 kts 139°
2026-05-07 08:12 40.59216 22.58246 5256 ft 228 kts 107°
2026-05-07 08:12 40.58861 22.60257 5143 ft 228 kts 103°
2026-05-07 08:12 40.58493 22.62297 4905 ft 230 kts 104°
2026-05-07 08:12 40.58113 22.64339 4609 ft 229 kts 104°
2026-05-07 08:13 40.57734 22.66374 4307 ft 228 kts 104°
2026-05-07 08:13 40.57356 22.68401 4007 ft 228 kts 104°
2026-05-07 08:13 40.56977 22.70433 3707 ft 229 kts 104°
2026-05-07 08:13 40.56598 22.72466 3407 ft 229 kts 104°
2026-05-07 08:14 40.56222 22.74477 3101 ft 221 kts 104°
2026-05-07 08:14 40.55864 22.76396 2817 ft 211 kts 104°
2026-05-07 08:14 40.55521 22.78226 2556 ft 201 kts 104°
2026-05-07 08:14 40.55200 22.79941 2305 ft 186 kts 104°
2026-05-07 08:15 40.54902 22.81532 2061 ft 172 kts 104°
2026-05-07 08:15 40.54628 22.82992 1848 ft 155 kts 104°
2026-05-07 08:15 40.54383 22.84297 1630 ft 143 kts 104°
2026-05-07 08:15 40.54148 22.85549 1439 ft 139 kts 105°
2026-05-07 08:16 40.53917 22.86775 1259 ft 138 kts 105°
2026-05-07 08:16 40.53688 22.87995 1075 ft 137 kts 104°
2026-05-07 08:16 40.53458 22.89213 900 ft 137 kts 104°
2026-05-07 08:16 40.53228 22.90437 722 ft 138 kts 104°
2026-05-07 08:17 40.52998 22.91670 556 ft 140 kts 104°
2026-05-07 08:17 40.52763 22.92915 372 ft 141 kts 104°
2026-05-07 08:17 40.52526 22.94167 176 ft 142 kts 104°
2026-05-07 08:17 40.52292 22.95411 33 ft 133 kts 103°
2026-05-07 08:18 40.52102 22.96420 30 ft 90 kts 104°
2026-05-07 08:18 40.51991 22.97000 27 ft 42 kts 104°
2026-05-07 08:18 40.51932 22.97319 26 ft 28 kts 103°
2026-05-07 08:18 40.51917 22.97514 29 ft 21 kts 80°
2026-05-07 08:19 40.51977 22.97653 29 ft 17 kts 56°
2026-05-07 08:19 40.52019 22.97789 29 ft 15 kts 70°
2026-05-07 08:19 40.52057 22.97909 29 ft 13 kts 67°
2026-05-07 08:19 40.52092 22.98018 29 ft 12 kts 67°
2026-05-07 08:20 40.52110 22.98091 29 ft 7 kts 67°
2026-05-07 08:20 40.52143 22.98112 29 ft 3 kts 12°
2026-05-07 08:20 40.52153 22.98115 29 ft 0 kts 12°